This is the latest recevied weather packets stored in our database for station/object KC8JWT. If no packets are shown the sender has not sent any weather packets the latest 10 day(s).
| Time | Temp. | Humidity | Pressure | Rain* | Wind** | Luminosity | Snow |
|---|---|---|---|---|---|---|---|
| 1777503825 | 17.22° C | 87% | 1009.3 hPa | 0 mm | - | 120 W/m² | - |
| 1777503522 | 16.67° C | 89% | 1009.5 hPa | 0 mm | - | 91 W/m² | - |
| 1777503218 | 16.11° C | 90% | 1009.4 hPa | 0 mm | - | 73 W/m² | - |
| 1777502915 | 16.11° C | 90% | 1009.6 hPa | 0 mm | - | 67 W/m² | - |
| 1777502613 | 16.11° C | 92% | 1009.2 hPa | 0 mm | - | 117 W/m² | - |
| 1777502310 | 16.11° C | 92% | 1008.9 hPa | 0 mm | - | 122 W/m² | - |
| 1777502007 | 16.11° C | 91% | 1009 hPa | 0 mm | - | 105 W/m² | - |
| 1777501704 | 16.11° C | 92% | 1008.9 hPa | 0 mm | - | 95 W/m² | - |
| 1777501401 | 16.11° C | 92% | 1009.1 hPa | 0 mm | - | 120 W/m² | - |
| 1777501098 | 15.56° C | 93% | 1008.8 hPa | 0 mm | - | 250 W/m² | - |
| 1777500797 | 15.56° C | 94% | 1008.9 hPa | 0 mm | - | 217 W/m² | - |
| 1777500494 | 15.56° C | 94% | 1008.7 hPa | 1.78 mm | - | 60 W/m² | - |
| 1777500190 | 16.11° C | 92% | 1008.5 hPa | 1.78 mm | - | 70 W/m² | - |
| 1777499886 | 17.22° C | 90% | 1008.2 hPa | 0 mm | - | 26 W/m² | - |
| 1777499583 | 17.78° C | 91% | 1008.3 hPa | 0 mm | - | 103 W/m² | - |
| 1777499280 | 17.78° C | 91% | 1008.4 hPa | 0 mm | - | 122 W/m² | - |
| 1777498978 | 17.78° C | 92% | 1007.9 hPa | 0 mm | - | 121 W/m² | - |
| 1777498673 | 17.78° C | 91% | 1007.9 hPa | 0 mm | - | 147 W/m² | - |
| 1777498370 | 17.78° C | 91% | 1007.6 hPa | 0 mm | - | 263 W/m² | - |
| 1777498067 | 17.78° C | 93% | 1007.2 hPa | 0 mm | - | 214 W/m² | - |
| 1777497764 | 17.78° C | 92% | 1007.4 hPa | 0 mm | - | 114 W/m² | - |
| 1777497461 | 17.78° C | 92% | 1007.6 hPa | 0 mm | - | 89 W/m² | - |
| 1777497157 | 18.33° C | 91% | 1007.5 hPa | 0 mm | - | 100 W/m² | - |
| 1777496854 | 18.33° C | 91% | 1007.5 hPa | 0 mm | - | 126 W/m² | - |
| 1777496551 | 18.33° C | 90% | 1007.4 hPa | 0 mm | - | 145 W/m² | - |
* Rain latest hour (hover to see other rain measurements)
** Current wind speed in m/s (hover to see current wind gust speed)